Regional Weather Roundup
Issued by NWS

Home | Current Version | Previous Version | Graphics & Text | Print | Product List | Glossary On
Versions: 1 2 3 4 5 6 7 8 9 10 11 12 13 14 15 16 17 18 19 20 21 22 23 24 25 26 27 28 29 30 31 32 33 34 35 36 37 38 39 40 41 42 43 44 45 46 47 48 49 50
239
ASUS43 KFSD 241110
RWRSD

WEATHER ROUNDUP FOR SOUTH DAKOTA
NATIONAL WEATHER SERVICE SIOUX FALLS SD
600 AM CDT SUN JUL 24 2016

NOTE: "FAIR" INDICATES FEW OR NO CLOUDS BELOW 12,000 FEET WITH NO
SIGNIFICANT WEATHER AND/OR OBSTRUCTIONS TO VISIBILITY.


SDZ001>005-009-010-012>017-241200-
NORTHWEST AND NORTH CENTRAL SOUTH DAKOTA

CITY           SKY/WX    TMP DP  RH WIND       PRES   REMARKS
BUFFALO          N/A     63  50  62 N14       30.01F
FAITH            N/A     57  45  64 N13       30.02F
MOBRIDGE       CLEAR     64  56  75 NW12      29.97F
$$

SDZ012>016-024>037-041>051-057-063-072>074-241200-
SOUTHWEST AND SOUTH CENTRAL SOUTH DAKOTA

CITY           SKY/WX    TMP DP  RH WIND       PRES   REMARKS
RAPID CTY ARPT CLOUDY    66  48  52 N10       30.09F
PIERRE         PTCLDY    66  54  65 N12       29.96F
CUSTER         CLOUDY    56  44  64 NE9       30.19F
ELLSWORTH AFB  CLOUDY    66  52  61 N2          N/A
PHILIP         LGT RAIN  64  54  69 N6        30.05R
PINE RIDGE     MOCLDY    55  53  93 E6        30.06F
WINNER         FAIR      68  55  63 NE6       30.01R
$$

SDZ004>011-016>023-039-040-241200-
NORTHEAST SOUTH DAKOTA

CITY           SKY/WX    TMP DP  RH WIND       PRES   REMARKS
ABERDEEN       CLEAR     64  56  75 NW13      29.94S
WATERTOWN      CLEAR     67  61  81 NW10      29.93R
BROOKINGS      CLEAR     66  64  93 NW9         N/A
SISSETON         N/A     66  58  75 NW10      29.88R
$$

SDZ017-020-022-023-036>040-048>070-241200-
SOUTHEAST SOUTH DAKOTA

CITY           SKY/WX    TMP DP  RH WIND       PRES   REMARKS
SIOUX FALLS    PTCLDY    67  65  93 NW6       29.91R
HURON          CLEAR     60  57  89 NW8       29.94R
CHAMBERLAIN    CLOUDY    71  58  63 N6        29.96R
MITCHELL       PTCLDY    64  61  90 NW7       29.93S
YANKTON        PTCLDY    66  63  88 NW7       29.90F
$$

ABBREVIATIONS USED IN REMARKS
   TC - TEMPERATURE IN CELSIUS
  WCI - WIND CHILL INDEX
   HX - HEAT INDEX
  VSB - VISIBILITY





USA.gov is the U.S. government's official web portal to all federal, state and local government web resources and services.